This is the latest recevied weather packets stored in our database for station/object F1AGU-13. If no packets are shown the sender has not sent any weather packets the latest 10 day(s).
| Time | Temp. | Humidity | Pressure | Rain* | Wind** | Luminosity | Snow |
|---|---|---|---|---|---|---|---|
| 1787605816 | 16.67° C | 89% | 1014.9 hPa | 2.03 mm | - | - | - |
| 1787605220 | 17.22° C | 87% | 1015 hPa | 0.76 mm | - | - | - |
| 1787604616 | 17.78° C | 83% | 1014.5 hPa | 0 mm | - | - | - |
| 1787604016 | 18.33° C | 80% | 1014.5 hPa | 0 mm | - | - | - |
| 1787603417 | 18.89° C | 77% | 1013.6 hPa | 0 mm | - | - | - |
| 1787602816 | 19.44° C | 74% | 1013.7 hPa | 0 mm | - | - | - |
| 1787602216 | 20.56° C | 71% | 1013.8 hPa | 0 mm | - | - | - |
| 1787601616 | 20.56° C | 68% | 1013.4 hPa | 0 mm | - | - | - |
| 1787601016 | 21.11° C | 67% | 1013.5 hPa | 0 mm | - | - | - |
| 1787600416 | 21.11° C | 68% | 1013.2 hPa | 0 mm | - | - | - |
| 1787599816 | 21.11° C | 72% | 1013 hPa | 0 mm | - | - | - |
| 1787599216 | 21.11° C | 73% | 1012.9 hPa | 0 mm | - | - | - |
| 1787598616 | 20.56° C | 73% | 1012.8 hPa | 0 mm | - | - | - |
| 1787598016 | 20.56° C | 74% | 1012.6 hPa | 0 mm | - | - | - |
| 1787597416 | 20.56° C | 74% | 1012.3 hPa | 0 mm | - | - | - |
| 1787596816 | 21.11° C | 74% | 1012.7 hPa | 0 mm | - | - | - |
| 1787596216 | 21.11° C | 72% | 1012.4 hPa | 0 mm | - | - | - |
| 1787595616 | 21.11° C | 74% | 1012.7 hPa | 0 mm | - | - | - |
| 1787595016 | 21.67° C | 74% | 1013 hPa | 0 mm | - | - | - |
| 1787594416 | 21.67° C | 72% | 1012.9 hPa | 0 mm | - | - | - |
| 1787593816 | 22.22° C | 72% | 1013.4 hPa | 0 mm | - | - | - |
| 1787593216 | 22.78° C | 70% | 1013.1 hPa | 0 mm | - | - | - |
| 1787592616 | 22.78° C | 69% | 1013.3 hPa | 0 mm | - | - | - |
| 1787592016 | 23.33° C | 66% | 1012.9 hPa | 0 mm | - | - | - |
| 1787591416 | 23.89° C | 66% | 1013.6 hPa | 0 mm | - | - | - |
* Rain latest hour (hover to see other rain measurements)
** Current wind speed in m/s (hover to see current wind gust speed)